{"data":{"norad_id":60264,"intl_designator":"2024-131K","name":"STARLINK-32121","alt_names":[],"object_type":"PAYLOAD","status":"ACTIVE","operator":null,"country":"US","launch_date":"2024-07-27","launch_site_code":"AFETR","launch_vehicle":null,"mission":null,"orbit_class":"UNKNOWN","rcs_meters":null,"size_class":null,"mass_kg":null,"dimensions":null,"purposes":["comms"],"wikipedia_slug":null,"has_3d_model":false,"image_url":null,"decayed_at":null,"tle_current":{"epoch":"2026-09-21T07:24:20.399616Z","epoch_age_seconds":111691,"freshness":"FRESH","line1":"1 60264U 24131K   26264.30856944  .00000445  00000+0  26116-4 0  9990","line2":"2 60264  53.1595 222.7466 0001342  89.3621 270.7534 15.31706463121734","mean_motion":15.31706463,"eccentricity":0.0001342,"inclination_deg":53.1595,"raan_deg":222.7466,"arg_perigee_deg":89.3621,"mean_anomaly_deg":270.7534,"bstar":2.6116e-5,"rev_number":12173,"period_min":94.012791274616,"perigee_km":469.80161271941,"apogee_km":471.63984613399,"semimajor_km":6848.8577294267,"source":"CELESTRAK","updated_at":"2026-09-22T09:00:49.187926Z"}}}